DW2213 Weather Reports


Display with metric or nautical units.
time (UTC)temp
F
wind
direction
speed
MPH
gust
MPH
rain 1hr
in
rain 24hr
in
rain mn
in
humidity
%
barometer
mb
20260507095306 69 117 5.0 10.0 0.00 0.00 0.00 70 1011.2
20260507094805 69 87 3.0 9.0 0.00 0.00 0.00 69 1011.2
20260507094304 70 72 2.0 3.0 0.00 0.00 0.00 69 1011.3
20260507093304 70 31 4.0 9.0 0.00 0.00 0.00 67 1011.3
20260507092805 69 105 5.0 7.0 0.00 0.00 0.00 67 1011.3
20260507091804 68 110 5.0 9.0 0.00 0.00 0.00 70 1011.4
20260507091304 68 79 4.0 8.0 0.00 0.00 0.00 70 1011.4
20260507090804 68 49 2.0 7.0 0.00 0.00 0.00 70 1011.3
20260507090304 67 28 3.0 5.0 0.00 0.00 0.00 70 1011.3
20260507085804 67 302 3.0 6.0 0.00 0.00 0.00 69 1011.3
20260507085306 67 26 4.0 7.0 0.00 0.00 0.00 69 1011.3
20260507084804 67 2 2.0 7.0 0.00 0.00 0.00 68 1011.3
20260507084304 67 346 3.0 12.0 0.00 0.00 0.00 67 1011.3
20260507083805 67 318 5.0 9.0 0.00 0.00 0.00 67 1011.3
20260507083304 67 347 5.0 9.0 0.00 0.00 0.00 67 1011.3
20260507082804 66 300 3.0 7.0 0.00 0.00 0.00 67 1011.3
20260507082306 66 337 2.0 6.0 0.00 0.00 0.00 68 1011.4
20260507081805 66 308 2.0 5.0 0.00 0.00 0.00 68 1011.4
20260507081304 66 335 5.0 8.0 0.00 0.00 0.00 68 1011.4
20260507080804 65 306 3.0 6.0 0.00 0.00 0.00 69 1011.4
20260507080304 65 351 2.0 5.0 0.00 0.00 0.00 68 1011.4
20260507075307 65 347 2.0 6.0 0.00 0.00 0.00 67 1011.5
20260507074805 65 339 3.0 6.0 0.00 0.00 0.00 67 1011.5
20260507073804 65 324 3.0 5.0 0.00 0.00 0.00 67 1011.5
20260507072804 64 325 3.0 7.0 0.00 0.00 0.00 67 1011.4
20260507072306 64 325 3.0 6.0 0.00 0.00 0.00 68 1011.4
20260507071805 64 336 5.0 7.0 0.00 0.00 0.00 68 1011.4
20260507071304 64 263 2.0 5.0 0.00 0.00 0.00 70 1011.4
20260507070805 63 259 3.0 6.0 0.00 0.00 0.00 70 1011.4
20260507070304 63 243 2.0 5.0 0.00 0.00 0.00 72 1011.3
20260507065306 62 246 2.0 3.0 0.00 0.00 0.00 75 1011.3
20260507064804 62 246 2.0 3.0 0.00 0.00 0.00 76 1011.2
20260507064304 62 246 2.0 3.0 0.00 0.00 0.00 75 1011.2
20260507063805 62 246 2.0 3.0 0.00 0.00 0.00 76 1011.3
20260507062306 60 246 3.0 5.0 0.00 0.00 0.00 80 1011.2
20260507061304 60 246 0.0 3.0 0.00 0.00 0.00 81 1011.1
20260507060805 59 271 0.0 3.0 0.00 0.00 0.00 82 1011.0
20260507060305 59 246 0.0 1.0 0.00 0.00 0.00 82 1010.9
20260507055804 59 245 0.0 3.0 0.00 0.00 0.00 82 1010.8
20260507055306 59 245 2.0 3.0 0.00 0.00 0.00 82 1010.7
20260507054804 58 245 1.0 3.0 0.00 0.00 0.00 82 1010.7
20260507054304 58 246 3.0 5.0 0.00 0.00 0.00 81 1010.6
20260507053804 59 245 3.0 5.0 0.00 0.00 0.00 81 1010.6
20260507053304 59 220 2.0 3.0 0.00 0.00 0.00 80 1010.6
20260507052804 59 220 2.0 3.0 0.00 0.00 0.00 80 1010.6
20260507052306 59 220 2.0 3.0 0.00 0.00 0.00 80 1010.6
20260507051304 58 220 0.0 0.0 0.00 0.00 0.00 81 1010.7
20260507050804 58 220 0.0 0.0 0.00 0.00 0.00 81 1010.7
20260507045804 58 220 0.0 0.0 0.00 0.00 0.00 82 1010.7
20260507045306 58 220 0.0 0.0 0.00 0.00 0.00 82 1010.6
20260507044804 57 220 0.0 0.0 0.00 0.00 0.00 82 1010.6
20260507044304 57 220 0.0 2.0 0.00 0.00 0.00 81 1010.5
20260507043804 58 220 0.0 0.0 0.00 0.00 0.00 82 1010.5
20260507043304 58 220 0.0 1.0 0.00 0.00 0.00 81 1010.5
20260507042804 58 220 0.0 2.0 0.00 0.00 0.00 81 1010.4
20260507041804 58 220 1.0 2.0 0.00 0.00 0.00 81 1010.2
20260507040304 59 220 0.0 0.0 0.00 0.00 0.00 80 1010.1
20260507035805 59 220 0.0 0.0 0.00 0.00 0.00 80 1010.1
20260507035306 59 220 0.0 0.0 0.00 0.00 0.00 80 1010.2
20260507034804 59 220 1.0 3.0 0.00 0.00 0.00 80 1010.1
20260507034305 59 220 0.0 0.0 0.00 0.00 0.00 80 1010.1
20260507033305 59 220 0.0 0.0 0.00 0.00 0.00 80 1010.3
20260507032306 58 220 0.0 1.0 0.00 0.00 0.00 80 1010.4
20260507031804 59 220 0.0 1.0 0.00 0.00 0.00 80 1010.4
20260507030804 59 220 0.0 0.0 0.00 0.00 0.00 80 1010.5
20260507030304 59 220 0.0 1.0 0.00 0.00 0.00 80 1010.5
20260507025804 59 220 1.0 3.0 0.00 0.00 0.00 80 1010.5
20260507025306 59 220 0.0 2.0 0.00 0.00 0.00 81 1010.5
20260507024804 59 220 0.0 2.0 0.00 0.00 0.00 80 1010.5
20260507024304 59 220 1.0 3.0 0.00 0.00 0.00 80 1010.6
20260507023804 59 220 0.0 1.0 0.00 0.00 0.00 81 1010.5
20260507023304 59 220 0.0 2.0 0.00 0.00 0.00 80 1010.6
20260507022306 59 220 2.0 3.0 0.00 0.00 0.00 80 1010.6
20260507021804 59 220 1.0 3.0 0.00 0.00 0.00 80 1010.6
20260507021304 59 220 0.0 2.0 0.00 0.00 0.00 80 1010.6
20260507020804 59 220 0.0 2.0 0.00 0.00 0.00 81 1010.7
20260507020304 59 220 1.0 2.0 0.00 0.00 0.00 81 1010.7
20260507015804 58 220 1.0 3.0 0.00 0.00 0.00 81 1010.7
20260507015306 59 220 0.0 3.0 0.00 0.00 0.00 80 1010.7
20260507014803 59 220 1.0 3.0 0.00 0.00 0.00 80 1010.7
20260507013804 59 220 2.0 3.0 0.00 0.00 0.00 80 1010.6
20260507013304 59 220 1.0 3.0 0.00 0.00 0.00 80 1010.6
20260507012805 59 220 2.0 7.0 0.00 0.00 0.00 80 1010.6
20260507012306 59 201 3.0 5.0 0.00 0.00 0.00 80 1010.7
20260507011804 59 108 2.0 5.0 0.00 0.00 0.00 80 1010.6
20260507010304 60 108 2.0 3.0 0.00 0.00 0.00 79 1010.7
20260507005804 60 107 1.0 2.0 0.00 0.00 0.00 78 1010.7
20260507004803 60 107 1.0 2.0 0.00 0.00 0.00 77 1010.7
20260507004304 61 108 1.0 3.0 0.00 0.00 0.00 77 1010.8
20260507003804 61 107 1.0 3.0 0.00 0.00 0.00 77 1010.8
20260507003304 61 108 1.0 5.0 0.00 0.00 0.00 76 1010.9
20260507002804 61 108 2.0 5.0 0.00 0.00 0.00 76 1010.9
20260507001803 61 107 0.0 2.0 0.00 0.00 0.00 76 1010.8
20260507000804 62 107 0.0 2.0 0.00 0.00 0.00 75 1010.9
20260507000306 62 107 2.0 3.0 0.00 0.00 0.00 74 1010.9
20260506235804 62 108 1.0 2.0 0.00 0.00 0.00 74 1010.9
20260506235306 62 107 1.0 2.0 0.00 0.00 0.00 74 1010.9
20260506234804 62 108 1.0 2.0 0.00 0.00 0.00 74 1011.0
20260506234303 62 107 0.0 2.0 0.00 0.00 0.00 74 1011.1
20260506233804 63 107 2.0 3.0 0.00 0.00 0.00 73 1011.1
20260506233304 63 107 0.0 1.0 0.00 0.00 0.00 71 1011.1
20260506232804 64 107 0.0 0.0 0.00 0.00 0.00 71 1011.2
20260506232306 64 107 0.0 0.0 0.00 0.00 0.00 71 1011.1
20260506231804 64 107 0.0 0.0 0.00 0.00 0.00 71 1011.1
20260506231305 64 107 0.0 0.0 0.00 0.00 0.00 71 1011.1
20260506230304 64 107 0.0 0.0 0.00 0.00 0.00 71 1011.3
20260506225803 64 107 0.0 0.0 0.00 0.00 0.00 71 1011.3
20260506224803 64 107 0.0 0.0 0.00 0.00 0.00 71 1011.3
20260506224304 64 107 0.0 0.0 0.00 0.00 0.00 71 1011.3
20260506223804 64 107 0.0 0.0 0.00 0.00 0.00 71 1011.3
20260506223304 64 107 0.0 0.0 0.00 0.00 0.00 71 1011.3
20260506222804 64 107 0.0 0.0 0.00 0.00 0.00 71 1011.4
20260506221804 64 107 0.0 0.0 0.00 0.00 0.00 70 1011.3
20260506221304 64 107 0.0 0.0 0.00 0.00 0.00 69 1011.3
20260506220818 65 107 0.0 0.0 0.00 0.00 0.00 68 1011.3
20260506215306 65 107 2.0 3.0 0.00 0.00 0.00 68 1011.3
20260506214804 65 107 0.0 5.0 0.00 0.00 0.00 68 1011.3
20260506214304 65 108 1.0 2.0 0.00 0.00 0.00 68 1011.4
20260506213804 65 108 2.0 3.0 0.00 0.00 0.00 68 1011.4
20260506213304 65 107 2.0 5.0 0.00 0.00 0.00 68 1011.4
20260506212804 65 94 2.0 6.0 0.00 0.00 0.00 67 1011.3
20260506212306 65 96 1.0 5.0 0.00 0.00 0.00 68 1011.3
20260506210804 65 95 3.0 5.0 0.00 0.00 0.00 67 1011.1
20260506210303 65 96 1.0 6.0 0.00 0.00 0.00 67 1011.0
20260506205804 65 96 4.0 7.0 0.00 0.00 0.00 67 1010.9
20260506205306 65 109 3.0 7.0 0.00 0.00 0.00 67 1010.9
20260506204803 65 89 4.0 7.0 0.00 0.00 0.00 67 1010.9
20260506203804 65 89 2.0 7.0 0.00 0.00 0.00 67 1010.7
20260506203303 65 107 5.0 8.0 0.00 0.00 0.00 67 1010.7
20260506202804 65 102 4.0 8.0 0.00 0.00 0.00 67 1010.7
20260506202306 65 89 4.0 6.0 0.00 0.00 0.00 67 1010.7
20260506201803 65 112 2.0 7.0 0.00 0.00 0.00 68 1010.6
20260506201304 65 83 5.0 7.0 0.00 0.00 0.00 67 1010.6
20260506200804 65 100 5.0 8.0 0.00 0.00 0.00 67 1010.5
20260506200304 66 103 3.0 6.0 0.00 0.00 0.00 68 1010.4
20260506195803 66 114 3.0 6.0 0.00 0.00 0.00 68 1010.3
20260506195306 66 99 3.0 8.0 0.00 0.00 0.00 68 1010.3
20260506194804 66 96 4.0 7.0 0.00 0.00 0.00 68 1010.2
20260506194303 66 115 4.0 6.0 0.00 0.00 0.00 67 1010.2
20260506193304 66 100 5.0 7.0 0.00 0.00 0.00 66 1010.1
20260506192803 66 107 4.0 7.0 0.00 0.00 0.00 66 1009.9
20260506192306 67 87 5.0 9.0 0.00 0.00 0.00 66 1010.0
20260506191804 67 117 3.0 6.0 0.00 0.00 0.00 66 1009.9
20260506191303 67 117 4.0 6.0 0.00 0.00 0.00 66 1009.8
20260506190804 67 125 3.0 8.0 0.00 0.00 0.00 66 1009.8
20260506190303 67 135 3.0 7.0 0.00 0.00 0.00 66 1009.8
20260506185804 67 124 6.0 9.0 0.00 0.00 0.00 66 1009.7
20260506185306 67 134 6.0 9.0 0.00 0.00 0.00 66 1009.6
20260506184804 67 119 6.0 9.0 0.00 0.00 0.00 65 1009.5
20260506184304 67 119 4.0 9.0 0.00 0.00 0.00 65 1009.6
20260506183803 67 114 6.0 9.0 0.00 0.00 0.00 65 1009.5
20260506183304 67 113 5.0 8.0 0.00 0.00 0.00 64 1009.5
20260506182804 67 126 6.0 12.0 0.00 0.00 0.00 64 1009.5
20260506182306 68 118 6.0 12.0 0.00 0.00 0.00 63 1009.4
20260506181804 68 120 6.0 9.0 0.00 0.00 0.00 63 1009.5
20260506181304 68 122 4.0 8.0 0.00 0.00 0.00 64 1009.4
20260506180804 68 119 7.0 12.0 0.00 0.00 0.00 63 1009.5
20260506180303 68 127 7.0 12.0 0.00 0.00 0.00 63 1009.5
20260506175803 68 99 6.0 13.0 0.00 0.00 0.00 63 1009.4
20260506175306 68 69 6.0 12.0 0.00 0.00 0.00 63 1009.4
20260506174803 68 105 7.0 12.0 0.00 0.00 0.00 63 1009.5
20260506174305 68 101 7.0 13.0 0.00 0.00 0.00 62 1009.6
20260506173304 69 112 5.0 9.0 0.00 0.00 0.00 62 1009.7
20260506172806 69 109 4.0 12.0 0.00 0.00 0.00 63 1009.7
20260506172307 69 90 6.0 9.0 0.00 0.00 0.00 62 1009.7
20260506170805 69 119 5.0 13.0 0.00 0.00 0.00 61 1009.7
20260506170305 69 75 6.0 13.0 0.00 0.00 0.00 61 1009.6
20260506165804 69 59 6.0 12.0 0.00 0.00 0.00 62 1009.7
20260506165306 69 87 7.0 12.0 0.00 0.00 0.00 61 1009.6
20260506164804 69 127 7.0 13.0 0.00 0.00 0.00 61 1009.5
20260506164304 70 103 7.0 14.0 0.00 0.00 0.00 61 1009.6
20260506163304 70 111 10.0 15.0 0.00 0.00 0.00 59 1009.6
20260506162804 70 78 7.0 13.0 0.00 0.00 0.00 59 1009.6
20260506162307 71 85 7.0 14.0 0.00 0.00 0.00 59 1009.5
20260506161805 71 101 5.0 15.0 0.00 0.00 0.00 58 1009.4
20260506161304 70 117 6.0 13.0 0.00 0.00 0.00 59 1009.4
20260506160804 70 114 7.0 14.0 0.00 0.00 0.00 58 1009.4
20260506155306 71 53 8.0 15.0 0.00 0.00 0.00 58 1009.5
20260506154305 71 82 8.0 12.0 0.00 0.00 0.00 58 1009.5
20260506152306 71 123 9.0 12.0 0.00 0.00 0.00 58 1009.5
20260506151304 71 84 8.0 15.0 0.00 0.00 0.00 57 1009.4
20260506150805 71 72 9.0 14.0 0.00 0.00 0.00 58 1009.4
20260506150305 71 108 7.0 12.0 0.00 0.00 0.00 58 1009.4
20260506145805 71 104 9.0 13.0 0.00 0.00 0.00 58 1009.5
20260506145306 72 89 10.0 18.0 0.00 0.00 0.00 56 1009.5
20260506144305 72 126 10.0 15.0 0.00 0.00 0.00 56 1009.5
20260506143804 73 142 8.0 15.0 0.00 0.00 0.00 55 1009.6
20260506143305 73 64 10.0 16.0 0.00 0.00 0.00 54 1009.8
20260506142804 74 26 10.0 21.0 0.00 0.00 0.00 54 1009.7
20260506141804 74 104 9.0 16.0 0.00 0.00 0.00 55 1009.8
20260506141304 73 85 9.0 13.0 0.00 0.00 0.00 55 1009.9
20260506140805 73 100 10.0 17.0 0.00 0.00 0.00 54 1009.9
20260506140304 74 44 12.0 18.0 0.00 0.00 0.00 53 1009.9
20260506135805 74 102 9.0 15.0 0.00 0.00 0.00 54 1009.9
20260506135306 74 29 9.0 16.0 0.00 0.00 0.00 53 1009.9
20260506134805 74 74 8.0 16.0 0.00 0.00 0.00 53 1009.9
20260506133804 73 107 10.0 18.0 0.00 0.00 0.00 55 1009.9
20260506133305 74 65 6.0 17.0 0.00 0.00 0.00 53 1010.0
20260506132805 75 44 7.0 13.0 0.00 0.00 0.00 53 1010.0
20260506132307 75 76 8.0 14.0 0.00 0.00 0.00 54 1010.0
20260506131805 74 71 9.0 16.0 0.00 0.00 0.00 54 1010.0
20260506131304 74 79 9.0 15.0 0.00 0.00 0.00 53 1010.0
20260506130805 74 92 10.0 20.0 0.00 0.00 0.00 52 1010.1
20260506130305 74 20 8.0 15.0 0.00 0.00 0.00 51 1010.1
20260506125804 74 64 9.0 15.0 0.00 0.00 0.00 52 1010.2
20260506125305 74 47 9.0 14.0 0.00 0.00 0.00 52 1010.2
20260506124804 73 56 10.0 18.0 0.00 0.00 0.00 52 1010.3
20260506124305 74 69 9.0 16.0 0.00 0.00 0.00 48 1010.3
20260506123804 74 85 7.0 12.0 0.00 0.00 0.00 48 1010.3
20260506123304 75 70 8.0 15.0 0.00 0.00 0.00 48 1010.4
20260506122804 75 46 8.0 14.0 0.00 0.00 0.00 51 1010.4
20260506122306 74 106 6.0 12.0 0.00 0.00 0.00 51 1010.4
20260506121804 74 40 6.0 15.0 0.00 0.00 0.00 49 1010.4
20260506121305 74 35 7.0 13.0 0.00 0.00 0.00 48 1010.4
20260506120804 74 25 6.0 13.0 0.00 0.00 0.00 48 1010.5
20260506120304 74 77 7.0 13.0 0.00 0.00 0.00 50 1010.5
20260506115804 74 31 9.0 13.0 0.00 0.00 0.00 50 1010.5
20260506115307 74 84 6.0 10.0 0.00 0.00 0.00 51 1010.5
20260506114805 74 39 7.0 14.0 0.00 0.00 0.00 51 1010.6
20260506114304 74 107 9.0 16.0 0.00 0.00 0.00 51 1010.6
20260506113304 74 41 7.0 12.0 0.00 0.00 0.00 51 1010.7
20260506112804 74 125 7.0 14.0 0.00 0.00 0.00 52 1010.7
20260506111804 73 83 6.0 13.0 0.00 0.00 0.00 52 1010.9
20260506111304 74 94 6.0 13.0 0.00 0.00 0.00 54 1010.8
20260506110804 74 36 6.0 12.0 0.00 0.00 0.00 53 1010.8
20260506110305 74 128 6.0 13.0 0.00 0.00 0.00 52 1010.9
20260506105804 73 112 6.0 15.0 0.00 0.00 0.00 52 1010.9
20260506105305 72 43 5.0 14.0 0.00 0.00 0.00 54 1010.9
20260506104805 73 74 5.0 12.0 0.00 0.00 0.00 54 1010.9
20260506104305 72 43 7.0 12.0 0.00 0.00 0.00 55 1011.0
20260506103805 72 71 5.0 9.0 0.00 0.00 0.00 57 1011.0
20260506103304 71 53 6.0 12.0 0.00 0.00 0.00 58 1011.0
20260506102805 71 108 4.0 12.0 0.00 0.00 0.00 56 1011.1
20260506101804 72 111 7.0 12.0 0.00 0.00 0.00 56 1011.2
20260506101305 71 81 4.0 12.0 0.00 0.00 0.00 56 1011.2
20260506100804 71 81 6.0 9.0 0.00 0.00 0.00 56 1011.2
20260506100305 71 71 3.0 8.0 0.00 0.00 0.00 56 1011.2